Powrót do katalogu

BREEZE-M DEB

TANK

AktywnyHEO
NORAD 41193·DEBRIS·🇷🇺 Russia

Wystrzelony Dec 24, 2015 z Baikonur Cosmodrome

Loading…

Następne Przeloty (najbliższe 24 godziny)

TLE

ŚwieżeSource: Space-Track

Epoka: Sep 11, 2026, 09:07 UTC

1 41193U 15082C   26254.37989553  .00004453  00000-0  89774-3 0  9996
2 41193  49.5579 321.4350 5203297  13.6273 356.3528  5.27669775202175

Śledź BREEZE-M DEB w czasie rzeczywistym z AllMySat

Download on the App Store